Regional Weather Roundup
Issued by NWS

Home | Current Version | Previous Version | Graphics & Text | Print | Product List | Glossary On
Versions: 1 2 3 4 5 6 7 8 9 10 11 12 13 14 15 16 17 18 19 20 21 22 23 24 25 26 27 28 29 30 31 32 33 34 35 36 37 38 39 40 41 42 43 44 45 46 47 48 49 50
000
ASUS43 KDTX 250710
RWRMI
MICHIGAN HOURLY REGIONAL WEATHER ROUNDUP
NATIONAL WEATHER SERVICE DETROIT/PONTIAC MI
300 AM EDT MON MAY 25 2015

NOTE: "FAIR" INDICATES FEW OR NO CLOUDS BELOW 12,000 FEET WITH NO
SIGNIFICANT WEATHER AND/OR OBSTRUCTION TO VISIBILITY.

MIZ047>049-052>055-059>063-066>070-074>076-081>083-250800-
SOUTHEAST LOWER MICHIGAN

CITY           SKY/WX    TMP DP  RH WIND       PRES   REMARKS
ADRIAN         MOCLDY    70  52  52 SW10      30.04F
ALMA           MOCLDY    61  56  83 SE3       29.97F
ANN ARBOR      CLOUDY    65  53  65 S3        30.03F
BAD AXE        LGT RAIN  58  48  69 E9        30.03F
CARO           CLOUDY    64  52  64 SE5       30.00F
DETROIT CITY   CLOUDY    69  53  56 S7        30.04F
DETROIT        CLOUDY    66  55  67 SE6       30.04F
FLINT          MOCLDY    72  51  47 S10       30.00F
GROSSE ILE     MOCLDY    63  57  82 S6        30.03F
HILLSDALE      PTCLDY    70  53  56 S8        30.03F
HOWELL         PTCLDY    68  51  53 S7        30.01F

CITY           SKY/WX    TMP DP  RH WIND       PRES   REMARKS
JACKSON        PTCLDY    70  53  54 S12       30.01F
LAMBERTVILLE   MOCLDY    70  50  49 S5        30.04F
LANSING        PTCLDY    66  53  63 S9        29.99F
LAPEER         FAIR      65  49  55 S6        30.02F
MASON          PTCLDY    63  52  67 S7        30.00F
MONROE         MOCLDY    66  54  63 S5        30.02F
MT. CLEMENS    CLOUDY    62  55  78 S8        30.01F
PONTIAC        MOCLDY    67  52  58 S6        30.02F
PORT HOPE        N/A     55  52  89 E10       30.03F
PORT HURON     CLOUDY    64  52  63 CALM      30.04S
TRI CITIES     CLOUDY    63  56  78 SE6       29.98F
MIDLAND        CLOUDY    61  57  86 E5        29.97F
TROY           CLOUDY    69  53  56 CALM      30.05F
SAGINAW HB     CLOUDY    63  55  77 SE3       29.98F
$$
MIZ043>046-050>051-056>058-064>065-071>073-077>080-250800-
SOUTHWEST LOWER MICHIGAN

CITY           SKY/WX    TMP DP  RH WIND       PRES   REMARKS
BATTLE CREEK   CLEAR     71  55  56 S12       29.99F
BENTON HARBOR  PTCLDY    72  58  61 S13G21    29.92F
BIG RAPIDS     CLOUDY    59  56  88 SE5       29.94F
COLDWATER      CLEAR     71  53  52 S7        30.00F
FREMONT        CLOUDY    62  58  88 SE6       29.92F
HOLLAND        PTCLDY    71  57  61 S12       29.93F
GRAND RAPIDS   CLOUDY    71  55  56 S13       29.95F
IONIA          MOCLDY    68  55  61 S9        29.95F
KALAMAZOO      CLEAR     71  55  56 S13       29.97F
LUDINGTON      CLOUDY    61  58  91 E6        29.91F
MARSHALL       CLEAR     71  55  55 S9        29.99F
MOUNT PLEASANT CLOUDY    59  57  92 CALM      29.96F
MUSKEGON       MOCLDY    70  58  65 S12       29.91F
SOUTH HAVEN    CLEAR     72  57  58 S9        29.93F
$$
MIZ016>042-250800-
NORTHERN LOWER MICHIGAN

CITY           SKY/WX    TMP DP  RH WIND       PRES   REMARKS
ALPENA         RAIN      57  56  96 SE7       30.03F FOG
BEAVER ISLAND  LGT RAIN  53  52  98 E8        29.97F
BELLAIRE       HVY RAIN  60  58  92 CALM      29.95F
CADILLAC       LGT RAIN  58  56  92 SE6       29.95F
CHARLEVOIX     HVY RAIN  58  58 100 E3        29.98F
FRANKFORT      LGT RAIN  63  57  80 SE7       29.90F
GAYLORD        RAIN      58  58 100 SE12      29.97F FOG
GRAYLING       RAIN      59  55  88 E10       29.98F
HARBOR SPRINGS HVY RAIN  57  56  99 NE9       29.97F
HOUGHTON LAKE  LGT RAIN  58  55  90 E9        29.97F
MANISTEE       CLOUDY    59  55  88 SE6       29.93F
OSCODA         LGT RAIN  58  56  95 E7        30.01F
PELLSTON       LGT RAIN  58  57  97 E5        29.99F FOG
ROGERS CITY    RAIN      58  57  97 SE5       30.03F
TRAVERSE CITY  RAIN      60  58  92 SE6       29.92F FOG
$$
MIZ007>008-015-250800-
EASTERN UPPER MICHIGAN

CITY           SKY/WX    TMP DP  RH WIND       PRES   REMARKS
KINROSS        CLOUDY    54  54 100 E5        30.01F
MACKINAC ISLAN LGT RAIN  51  51 100 E8        30.00F
NEWBERRY       LGT RAIN  54  53  99 SE5       29.98F
S. S. MARIE    RAIN      54  52  93 SE3       30.01F FOG
MUNISING         N/A     57  54  89 S5        29.94F
$$
MIZ004>006-011>014-085-250800-
CENTRAL UPPER MICHIGAN

CITY           SKY/WX    TMP DP  RH WIND       PRES   REMARKS
MANISTIQUE     LGT RAIN  53  52  97 E5        29.96F
ESCANABA       CLOUDY    55  52  88 E8        29.92F
MENOMINEE      CLOUDY    54  52  94 E13       29.88F
SAWYER-GWINN   LGT RAIN  55  53  95 S6        29.94F
$$
MIZ001>003-009>011-084-250800-
WESTERN UPPER MICHIGAN

CITY           SKY/WX    TMP DP  RH WIND       PRES   REMARKS
IRON MOUNTAIN  RAIN      55  54  96 NE5       29.89F FOG
HOUGHTON       LGT RAIN  58  50  75 S3        29.90F
COPPER HARBOR    N/A     59  47  64 CALM      29.90F
IRONWOOD       CLOUDY    57  55  94 E6        29.84F
$$

ABBREVIATIONS USED IN REMARKS
   TC - TEMPERATURE IN CELSIUS
  WCI - WIND CHILL INDEX
   HX - HEAT INDEX
  VSB - VISIBILITY




USA.gov is the U.S. government's official web portal to all federal, state and local government web resources and services.